Location: Eboldshausen
(51.7766°N, 10.0050°E)
Time: 16:44:20
(UTC+00:00)

Cosmos 2278 Rocket - Pass Details

Date: 15 November 2025
Orbit: 841 x 843 km, 71.0° (Epoch: 09 December)

Event Time Altitude Azimuth Distance (km) Brightness Sun altitude
Rises 18:21:13 0° 220° (SW) 3,388 5.8 -26.3°
Reaches altitude 10° 18:23:40 10° 223° (SW) 2,457 5.1 -26.7°
Maximum altitude 18:29:16 63° 305° (NW) 938 2.5 -27.6°
Enters shadow 18:31:02 42° 6° (N) 1,184 2.9 -27.9°
